Location: Sark
(49.4440°N, 2.3620°W)
Time: 00:45:08
(UTC+01:00)

Envisat - Visible Passes

Search period start: 19 October 2017 00:00
Search period end: 29 October 2017 00:00
Orbit: 764 x 766 km, 98.2° (Epoch: 18 October)

Date Brightness Start Highest point End Pass type
(mag) Time Alt. Az. Time Alt. Az. Time Alt. Az.
19 Oct 4.7 18:54:52 10° E 18:57:14 13° NE 18:59:35 10° NNE visible
19 Oct 2.8 20:34:54 66° ESE 20:35:23 72° ENE 20:40:28 10° N visible
19 Oct 5.4 22:15:07 18° W 22:15:07 18° W 22:18:22 10° NW visible
20 Oct 3.5 19:57:55 34° E 19:58:50 37° ENE 20:03:29 10° N visible
20 Oct 4.4 21:38:08 35° W 21:38:08 35° W 21:42:32 10° NNW visible
21 Oct 4.3 19:20:56 18° E 19:22:29 20° ENE 19:26:07 10° NNE visible
21 Oct 3.1 21:01:09 70° W 21:01:09 70° W 21:06:06 10° NNW visible
21 Oct 5.9 22:41:22 10° WNW 22:41:22 10° WNW 22:41:48 10° WNW visible
22 Oct 4.9 18:44:53 10° ENE 18:46:18 11° NE 18:47:43 10° NE visible
22 Oct 3.0 20:24:10 58° ENE 20:24:18 59° ENE 20:29:19 10° N visible
22 Oct 5.2 22:04:23 21° W 22:04:23 21° W 22:07:37 10° NW visible
23 Oct 3.7 19:47:11 30° ENE 19:47:49 31° ENE 19:52:13 10° N visible
23 Oct 4.1 21:27:24 41° WNW 21:27:24 41° WNW 21:31:33 10° NNW visible
24 Oct 4.5 19:10:11 16° ENE 19:11:30 17° NE 19:14:42 10° NNE visible
24 Oct 3.1 20:50:25 72° NNW 20:50:25 72° NNW 20:55:00 10° NNW visible
24 Oct 5.8 22:30:38 13° WNW 22:30:38 13° WNW 22:32:02 10° WNW visible
25 Oct 3.2 20:13:25 48° ENE 20:13:25 48° ENE 20:18:08 10° N visible
25 Oct 5.0 21:53:38 24° WNW 21:53:38 24° WNW 21:56:46 10° NW visible
26 Oct 4.0 19:36:26 26° ENE 19:36:48 26° ENE 19:40:56 10° N visible
26 Oct 4.0 21:16:39 44° WNW 21:16:39 44° WNW 21:20:32 10° NNW visible
27 Oct 4.6 18:59:27 13° ENE 19:00:33 14° NE 19:03:11 10° NNE visible
27 Oct 3.2 20:39:39 60° N 20:39:39 60° N 20:43:52 10° NNW visible
27 Oct 5.7 22:19:52 15° WNW 22:19:52 15° WNW 22:21:34 10° NW visible
28 Oct 3.5 20:02:40 39° NE 20:02:40 39° NE 20:06:55 10° N visible
28 Oct 4.9 21:42:53 27° WNW 21:42:53 27° WNW 21:45:52 10° NNW visible
